LOWILOWS

Guest
Details From LOWI - Innsbruck Kranebitten
To LOWS - Salzburg Maxglan
Flight Number -
Tags generated
Created
Modified
Stats Distance 75 nm / 138 km
Max Altitude 3,800 ft / 1,158 m
Waypoints 3
Social Downloads 1
Likes 0
Share VATSIM

Download

Looking for another format? Having issues loading an existing format? Contact us
Advertisement - Login to hide

Notes

Basic altitude profile: - Ascent Rate: 2000ft/min - Ascent Speed: 220kts - Cruise Altitude: 15000ft - Cruise Speed: 240kts - Descent Rate: 1500ft/min - Descent Speed: 200kts Options: - Use NATs: yes - Use PACOTS: yes - Use low airways: yes - Use high airways: no

Route

LOWI LOMRO LOWS

ID Type Via Altitude Latitude Longitude Leg Dist Tot Dist Heading (true) Name
O LOWI APT - 0 ft / 0 m 47.26023˚ 11.34397˚ - 0 nm - Innsbruck Kranebitten
LOMRO FIX - 3,800 ft / 1,158 m 47.66667˚ 12.59694˚ 56 nm 56 nm 64° / 65° -
O LOWS APT - 0 ft / 0 m 47.79333˚ 13.00433˚ 18 nm 74 nm 65° / 65° Salzburg Maxglan

Altitude Profile

Advertisement - Login to hide

LOWI

Details ICAO LOWI (INN)
Name Innsbruck Kranebitten
Region Austria
Timezone Europe/Vienna (UTC+2.0)
Stats Elevation 1,906 ft / 581 m (AMSL)
Location 47.260226° 11.343967°
Runways 1
Magnetic Variation 3.090° E

METAR

LOWI 200820Z 05003KT 360V080 9999 SCT065 23/13 Q1016 NOSIG

Decode

TAF

TAF AMD LOWI 200526Z 2006/2106 VRB02KT 9999 FEW060TCU BKN100 TX28/2013Z TN16/2105Z PROB30 TEMPO 2006/2012 VRB10G20KT -SHRA FEW060CB BKN080 BECMG 2009/2011 09007KT TEMPO 2012/2019 27015G30KT TSRA SCT050CB BKN060 BECMG 2018/2020 27006KT BKN070

Decode

Departure Runways

ID Width Length Bearing (true) Bearing (mag) Surface Threshold Offset Overrun Length
08 148 ft / 45 m 6,545 ft / 1,995 m 81.02° 77.93° Asphalt 338 ft / 103 m 0 ft / 0 m
26 148 ft / 45 m 6,545 ft / 1,995 m 261.04° 257.95° Asphalt 0 ft / 0 m 0 ft / 0 m

LOWS

Details ICAO LOWS (SZG)
Name Salzburg Maxglan
Region Austria
Timezone Europe/Vienna (UTC+2.0)
Stats Elevation 1,411 ft / 430 m (AMSL)
Location 47.793333° 13.004333°
Runways 1
Magnetic Variation 3.499° E

METAR

LOWS 200820Z 15003KT 100V200 9999 FEW070 24/14 Q1015 NOSIG

Decode

TAF

TAF LOWS 200515Z 2006/2106 15005KT 9999 FEW090 TX28/2014Z TN17/2103Z BECMG 2007/2009 34006KT 9999 FEW060 SCT300 TEMPO 2015/2019 FEW060CB SCT090 BKN300 BECMG 2018/2020 15005KT CAVOK

Decode

Destination Runways

ID Width Length Bearing (true) Bearing (mag) Surface Threshold Offset Overrun Length
16 148 ft / 45 m 9,024 ft / 2,751 m 157.08° 153.58° Concrete 656 ft / 200 m 0 ft / 0 m
34 148 ft / 45 m 9,024 ft / 2,751 m 337.09° 333.59° Concrete 787 ft / 240 m 0 ft / 0 m

Approach Navaids

Runway Type Ident Frequency Range Bearing (true) Bearing (mag) Slope Elevation
16 Localiser OES 109.90 MHz 18 nm / 33 km 157.53° 154.04° - 1,411 ft / 430 m (AMSL)
16 Glidescope OES 109.90 MHz 10 nm / 19 km 157.09° 153.59° 3.00° 1,446 ft / 441 m (AMSL)
16 DME OES 109.90 MHz 18 nm / 33 km - - - 1,446 ft / 441 m (AMSL)

Popular Alternatives